Wind_Speed
45 45 45 44 42 41 39 38 37 36 35 33 32 31 30 30 29 28 28 27 26 26 26 26 25 26 27 27 26 25 24 22 21 21 20 19 19 18 17 17 17 16 18 18 15 14 15 16 15 13 12 11 11 11 10 10 11 10 10 11 11 11 11 12 14 15 16 17 18 19 19 20 20 20 20 20 20 20 20 21 21 22 22 23 23 23
44 44 43 41 41 40 40 40 39 38 37 35 34 33 32 31 30 30 29 28 27 27 27 27 27 27 28 29 29 27 24 22 23 23 22 21 21 19 18 18 18 19 20 20 17 16 17 17 16 15 14 13 14 13 12 13 13 12 12 13 13 13 13 14 15 16 17 18 19 20 21 22 22 22 22 22 22 22 22 23 23 24 24 25 25 25
44 44 42 41 41 41 41 41 40 39 38 37 36 35 34 32 31 30 30 29 28 29 28 29 29 28 29 31 30 28 24 23 25 24 24 23 22 20 19 20 21 21 21 21 20 19 18 18 17 16 16 16 16 15 14 15 15 15 15 15 15 15 16 16 17 19 20 21 21 22 22 23 23 24 23 23 23 24 24 25 26 26 27 27 27 27
43 42 42 41 41 41 41 41 41 40 39 37 36 35 34 33 32 31 31 31 30 30 30 30 30 29 30 32 31 29 26 24 25 26 25 25 23 22 23 22 22 21 22 23 22 21 20 20 19 18 18 19 18 17 17 17 17 17 18 19 18 18 18 19 20 21 22 23 24 24 24 24 24 24 24 23 23 24 25 27 28 28 28 28 28 29
42 42 42 42 42 42 42 41 41 40 39 38 37 36 35 34 34 33 33 33 32 32 32 31 32 30 31 32 31 31 28 25 26 26 25 25 24 25 25 24 23 23 24 24 23 23 22 22 21 20 21 21 19 19 19 19 19 19 20 21 21 21 21 21 22 23 24 26 27 27 26 25 25 24 24 23 23 24 26 27 29 29 29 29 29 30
43 42 42 43 43 43 43 42 41 41 40 39 38 37 36 36 35 35 35 35 34 34 33 33 33 31 30 32 32 32 30 27 27 27 26 26 27 27 27 26 26 25 25 25 25 25 24 23 23 22 23 23 22 21 21 20 20 21 22 23 23 24 24 24 23 24 26 28 29 29 28 27 26 25 24 24 24 25 26 28 29 29 30 30 31 31
43 43 43 44 44 44 43 42 41 41 40 39 38 37 37 36 36 36 35 36 35 35 34 33 34 33 31 32 33 32 32 29 28 27 27 27 28 29 29 28 27 26 25 26 26 26 26 26 25 25 25 25 24 24 23 23 23 23 24 25 25 26 26 26 26 26 27 29 30 30 30 29 28 26 25 25 25 26 27 28 29 30 31 31 32 33
43 42 43 44 44 44 43 42 41 40 40 39 38 38 38 37 37 37 36 36 36 35 35 34 35 35 32 31 32 33 32 31 29 27 27 29 30 31 29 28 27 27 26 26 26 27 28 27 27 27 27 27 27 26 25 26 26 26 26 26 27 28 29 29 29 29 29 30 30 30 30 30 28 27 27 27 27 27 27 28 29 30 31 33 34 35
43 42 42 42 43 42 41 40 40 40 40 39 38 39 39 38 38 37 37 37 36 36 36 35 35 37 34 29 31 33 32 32 31 29 29 30 31 30 29 29 29 28 28 27 27 28 28 29 29 29 29 29 29 28 28 28 28 28 29 29 29 30 31 32 31 31 31 31 31 31 31 30 29 28 28 28 28 28 28 29 30 31 32 33 35 36
44 44 43 42 42 41 40 41 41 41 41 41 41 41 40 40 39 39 38 38 38 38 37 36 36 38 36 30 30 32 32 31 31 31 31 31 31 30 30 30 30 30 30 30 30 30 30 31 31 31 31 31 30 30 30 30 30 31 31 32 32 33 34 34 33 33 33 33 32 31 31 30 29 29 28 28 29 29 29 30 31 32 33 34 36 37
45 46 45 45 44 43 42 43 42 43 43 43 43 43 42 42 41 41 40 39 40 39 38 38 36 38 38 32 29 31 32 31 31 32 32 32 31 31 31 31 31 31 32 32 32 32 32 32 32 32 32 32 32 32 32 32 32 32 33 34 35 36 37 37 36 35 34 34 33 32 31 30 30 29 29 29 30 30 31 32 32 33 34 36 37 38
46 46 46 46 46 45 45 45 45 44 45 44 44 43 43 43 43 42 42 41 41 40 39 38 37 38 39 32 28 30 32 32 32 32 33 32 31 31 31 31 32 32 33 33 33 33 33 33 33 34 34 34 34 34 34 34 34 34 34 35 37 38 39 39 39 38 37 35 33 32 32 31 31 30 30 31 31 32 32 33 34 35 36 38 39 40
47 47 47 47 47 47 47 46 46 46 46 45 45 45 44 44 44 44 43 42 42 41 40 39 38 38 37 33 31 31 31 32 32 32 32 32 31 31 31 31 32 33 33 33 33 33 33 34 34 35 35 35 35 35 35 35 35 36 37 38 39 40 40 41 41 40 38 36 34 34 33 32 32 32 32 32 33 34 34 34 35 36 38 40 41 42
46 47 47 47 47 47 47 47 47 46 45 45 45 45 45 44 44 44 44 43 42 41 40 39 39 38 35 34 35 33 31 32 31 31 31 31 32 32 32 33 33 33 34 34 34 34 34 34 35 35 35 36 36 36 37 37 38 38 39 40 41 41 42 42 42 41 39 38 36 36 35 34 33 34 35 35 35 35 36 36 37 38 40 42 43 44
45 45 45 45 46 46 47 47 47 46 46 46 45 45 44 44 44 44 43 43 42 41 41 40 40 38 35 35 37 34 31 31 31 31 32 32 33 33 34 34 35 35 35 35 35 36 36 36 36 36 37 38 38 39 39 40 40 41 41 42 42 42 42 42 42 40 40 39 38 37 36 36 36 37 38 38 38 38 38 39 40 41 42 43 45 46
46 45 44 45 46 46 47 47 48 48 48 47 47 46 45 44 44 44 44 43 42 42 42 41 40 37 34 35 37 35 32 32 33 33 33 33 33 33 34 35 35 36 36 36 37 37 37 37 38 38 39 40 41 41 41 42 42 42 42 42 42 42 42 42 41 41 40 39 39 39 39 39 39 40 41 41 41 41 42 43 43 44 45 46 47 48
46 45 45 45 46 46 47 47 48 48 48 48 47 46 45 44 44 43 43 43 42 43 42 41 39 36 34 36 36 35 33 32 33 34 34 36 36 36 36 36 36 37 37 38 38 38 38 38 39 40 41 42 42 42 42 43 43 43 42 42 42 42 42 41 41 41 40 40 40 41 41 41 41 42 42 43 44 45 46 46 47 47 47 48 49 49
44 45 45 45 46 46 46 46 47 47 47 46 46 45 43 43 43 42 43 43 43 44 43 41 38 36 35 35 35 35 35 33 34 34 35 37 38 38 38 37 38 38 38 38 38 38 39 39 40 40 41 42 42 42 42 42 42 41 41 41 41 41 41 41 41 41 42 42 43 43 44 44 44 44 44 45 46 48 49 49 49 50 50 50 50 51
46 46 46 46 46 46 46 47 47 46 46 46 45 44 44 44 44 42 43 43 43 43 43 41 39 37 35 34 34 35 35 34 33 33 34 36 37 38 38 38 37 37 37 37 38 38 38 39 39 40 40 40 40 40 40 40 40 40 40 40 41 41 41 42 43 44 44 45 46 47 48 48 47 46 46 47 48 49 49 50 50 51 51 52 52 52
49 49 49 48 48 48 48 48 48 47 46 46 46 45 45 45 44 43 43 43 43 43 42 41 40 37 35 35 35 35 35 34 33 33 34 34 35 36 36 36 36 36 36 37 37 38 38 38 39 39 39 39 39 39 39 39 40 40 41 42 43 44 44 45 46 47 48 48 49 49 50 50 48 47 47 48 48 48 49 49 50 51 52 53 54 54
51 51 51 51 50 50 49 48 47 46 46 45 45 45 44 44 43 43 43 42 42 42 42 42 41 38 35 35 35 35 35 35 34 34 35 34 34 34 35 35 35 36 37 37 38 38 39 39 39 39 39 39 40 40 40 41 42 43 44 45 46 47 48 49 50 50 50 50 50 51 51 50 49 48 48 47 47 47 48 49 50 52 53 54 55 56
54 53 53 53 52 51 49 48 47 47 46 45 45 44 43 43 42 43 43 43 42 43 43 43 42 39 36 36 36 36 36 36 36 36 36 35 35 34 35 35 36 37 38 38 38 38 39 40 40 40 41 41 41 42 42 43 45 46 48 49 49 50 51 52 52 52 52 52 52 53 52 50 48 47 47 47 47 47 48 50 51 53 54 55 56 57
56 55 55 55 54 52 51 50 49 48 47 46 46 45 44 44 44 44 45 43 43 44 43 43 43 40 37 37 37 37 37 37 38 38 38 37 37 37 37 37 37 38 39 39 40 40 41 41 42 43 43 43 43 43 44 46 47 49 50 51 51 52 52 53 53 53 53 53 53 53 52 50 48 47 46 47 47 48 49 51 53 54 55 56 57 58
59 58 58 57 56 55 55 53 52 51 50 49 47 45 45 46 45 45 46 45 45 45 43 44 44 41 37 36 37 38 39 39 40 40 40 40 40 39 39 39 39 40 40 41 41 42 43 44 44 44 45 45 45 45 46 48 49 51 51 51 52 53 53 54 54 55 55 55 55 54 53 50 48 47 47 48 49 50 51 52 53 55 56 57 58 59
61 61 61 60 60 59 58 57 56 55 53 51 49 47 48 48 48 48 48 47 48 46 44 45 44 40 38 37 38 41 42 41 41 42 42 42 42 42 43 43 43 43 43 44 45 46 46 46 46 46 47 47 48 48 49 50 51 52 52 53 54 54 55 56 56 57 57 56 56 55 54 51 49 48 49 50 50 51 52 53 54 56 57 58 59 61
62 62 63 62 62 62 61 59 57 54 53 53 52 51 50 50 50 50 49 50 49 46 46 46 42 39 40 39 40 43 45 44 43 43 43 43 44 45 46 46 47 47 47 48 49 49 49 49 49 50 50 51 51 52 52 53 54 55 55 56 56 56 57 57 58 58 57 57 56 55 54 52 51 50 51 51 51 52 53 54 56 57 59 60 61 62
63 64 64 64 64 63 61 59 56 55 54 54 53 52 52 52 51 51 53 53 49 47 49 48 42 41 43 43 44 46 46 46 45 44 45 46 47 48 49 50 50 51 51 51 52 53 53 53 54 54 54 54 55 55 56 56 57 58 58 58 59 59 59 59 59 58 58 57 56 54 54 53 52 52 52 53 53 54 55 56 58 59 61 61 62 63
65 65 66 66 65 64 61 61 60 59 58 57 56 55 55 54 54 54 55 53 50 51 53 48 44 46 46 46 47 47 47 48 48 48 49 50 51 52 52 52 53 54 54 54 56 57 57 57 57 57 57 57 57 58 58 59 60 60 60 61 61 61 61 61 60 59 59 58 57 56 55 54 54 54 54 55 56 56 57 58 59 61 62 62 63 63
65 66 66 65 65 64 63 64 63 62 61 60 59 59 59 59 59 58 57 55 54 57 55 49 48 50 49 48 48 48 50 52 52 53 53 53 54 54 53 54 55 57 57 58 59 60 59 59 59 60 60 60 60 60 60 61 61 61 61 62 62 62 62 62 62 61 60 59 58 57 56 55 55 56 57 58 59 60 61 61 62 62 62 62 62 61
65 65 65 65 64 64 64 64 64 64 64 63 62 62 61 61 61 60 59 57 57 58 55 52 54 53 50 50 49 49 52 54 54 55 55 55 56 55 55 56 58 59 60 60 61 62 62 61 61 62 62 63 63 62 62 62 62 62 62 62 63 63 64 64 64 63 62 61 59 58 58 58 58 59 60 61 63 64 64 64 63 63 62 61 59 57
63 64 65 65 65 65 64 63 64 64 65 65 65 65 64 63 62 61 60 58 59 60 56 56 58 55 50 50 50 50 53 55 55 56 57 57 58 58 58 59 61 62 62 63 63 64 64 64 64 64 64 64 64 64 63 63 63 63 64 64 64 64 64 65 65 64 64 63 62 62 62 62 62 63 63 64 65 65 65 64 62 61 59 57 55 53
60 61 63 64 65 67 66 64 64 64 65 66 67 66 65 64 63 62 61 60 61 61 59 60 61 55 51 52 52 53 56 57 56 57 59 60 61 62 62 63 63 64 64 64 65 65 66 66 66 66 65 64 65 65 65 65 65 65 65 65 65 66 66 66 66 66 66 66 65 65 64 64 64 64 64 64 64 64 63 61 59 57 55 53 52 51
59 59 60 62 64 66 66 65 64 64 67 69 68 65 63 63 63 63 63 62 62 62 62 63 61 56 55 57 57 57 59 60 60 61 62 63 64 65 65 65 65 65 65 65 65 65 65 65 65 65 65 65 66 66 66 66 66 66 66 67 68 68 68 68 68 67 67 66 65 64 63 62 62 62 62 62 62 61 59 57 55 53 51 50 50 50
59 59 60 61 62 63 65 65 63 65 70 70 66 63 63 64 64 64 64 63 62 63 64 64 62 60 61 62 61 61 63 64 64 64 65 66 66 66 66 67 67 67 67 67 67 66 66 66 65 65 66 66 66 67 67 68 68 69 69 69 69 69 69 68 67 66 64 63 62 61 61 61 60 60 60 59 59 57 56 54 53 53 52 51 51 52
60 60 60 61 61 62 65 66 66 68 70 67 63 63 64 64 65 65 66 65 65 66 66 66 65 64 63 63 63 64 66 66 67 67 67 67 67 67 67 67 68 68 68 68 68 67 67 67 66 66 67 67 68 69 70 70 70 70 69 68 68 67 67 66 65 64 63 62 61 61 60 60 59 59 58 58 57 56 56 55 55 55 55 54 55 55
59 60 60 61 62 63 65 67 69 70 68 65 65 65 65 65 66 67 68 67 66 66 67 66 65 64 63 63 64 66 68 69 69 69 69 69 68 68 68 68 68 68 68 68 68 68 69 69 69 69 69 69 69 69 68 68 68 67 66 65 65 64 64 64 63 63 63 63 62 62 61 60 59 59 58 58 58 58 58 58 59 59 59 59 60 61
60 60 60 61 62 63 65 67 68 68 67 66 65 64 64 65 66 67 68 67 65 65 66 66 65 64 64 64 65 67 69 70 71 71 70 70 69 68 68 68 69 69 69 70 71 71 71 71 70 69 67 66 65 64 64 64 64 64 64 64 63 63 63 63 63 63 63 63 64 63 63 62 62 61 61 61 61 61 62 63 63 64 65 65 66 66
62 62 62 62 63 63 64 65 67 68 68 65 62 62 64 65 65 66 68 68 65 64 65 66 66 65 65 65 66 67 69 71 71 70 70 70 69 69 69 70 70 71 71 70 70 69 68 67 66 64 63 62 62 62 62 62 63 63 63 62 62 62 62 62 63 64 64 65 66 66 66 66 66 66 66 65 65 65 66 67 68 69 70 70 70 71
63 63 63 64 65 65 66 67 69 70 68 63 60 62 64 65 65 66 69 69 64 63 65 66 66 65 65 65 66 66 68 70 70 70 70 70 70 70 70 69 68 68 67 66 66 65 64 64 63 62 62 61 61 61 62 62 62 62 62 61 61 61 62 63 64 65 66 67 68 68 69 69 69 69 69 69 70 70 71 72 73 74 74 75 75 75
62 63 64 66 66 66 67 69 70 70 68 63 62 64 65 65 65 66 69 68 63 62 65 65 64 63 62 63 64 65 67 68 68 68 68 68 67 66 65 64 64 63 63 63 63 63 63 63 63 63 63 62 62 62 62 62 62 61 60 60 60 61 62 64 65 66 67 68 69 70 71 72 72 73 74 75 75 76 77 77 78 79 79 79 79 77
63 63 64 65 65 65 66 68 69 68 64 60 61 63 65 67 68 68 69 66 63 63 63 62 61 60 58 59 61 61 62 62 62 62 62 61 61 61 61 61 61 61 61 62 62 63 63 63 63 64 64 64 63 63 63 63 62 61 61 61 62 63 64 65 67 68 70 71 71 73 74 75 76 77 78 79 80 80 81 82 82 82 82 81 80 79
63 63 64 64 64 63 63 64 65 64 60 57 59 62 65 67 67 66 64 61 59 59 58 59 59 58 56 56 56 57 57 57 57 58 58 58 59 59 59 59 59 59 60 61 62 63 63 64 64 64 65 65 65 65 65 65 65 65 65 65 66 67 68 70 71 72 72 73 73 74 75 76 78 79 81 82 83 83 83 83 84 84 84 83 82 81
60 60 61 61 60 60 60 61 62 60 56 54 57 60 62 63 62 59 58 57 56 56 56 57 58 58 57 56 56 56 57 56 57 57 58 58 59 59 60 60 60 60 61 61 62 64 65 66 66 67 67 68 68 68 68 68 69 70 70 71 72 73 74 75 76 76 75 75 76 77 78 79 80 82 83 84 84 85 85 85 85 86 86 86 86 86
60 60 60 59 57 57 57 57 56 53 50 51 53 54 56 57 57 57 57 57 57 57 57 57 57 58 58 57 57 57 57 57 58 58 58 59 59 60 60 61 61 62 62 63 63 64 64 66 67 68 69 70 70 71 71 72 73 74 75 76 77 79 80 81 80 79 79 79 80 82 83 83 84 85 85 86 87 87 87 88 88 88 89 89 90 90
61 60 59 58 58 58 56 54 50 48 48 50 52 53 55 57 58 59 59 59 59 59 58 58 59 59 59 59 60 60 60 60 60 60 60 60 60 61 61 62 63 64 64 65 65 65 66 67 67 68 69 70 71 72 73 74 76 77 78 80 82 83 84 84 83 83 84 85 86 87 88 88 88 88 88 89 89 90 90 91 91 91 91 91 92 93
58 57 56 55 56 56 56 54 53 53 53 55 56 56 57 57 58 60 60 60 60 60 60 60 60 61 61 61 61 62 62 62 62 62 61 61 61 61 62 62 63 64 65 66 67 68 69 69 70 71 72 73 74 75 76 77 79 80 82 83 85 85 85 85 85 86 86 88 89 89 90 90 90 90 90 90 91 91 92 92 93 93 93 93 94 94
58 58 57 57 58 58 58 57 57 58 59 59 60 61 62 62 61 62 62 62 62 61 61 62 62 63 64 64 64 64 64 64 64 64 63 62 62 63 63 64 65 66 67 69 70 71 72 73 74 75 76 77 77 78 79 80 81 82 84 84 85 86 86 86 87 87 88 88 89 89 90 90 90 91 91 91 92 92 92 93 94 94 94 94 95 96
61 61 61 61 62 63 63 62 62 63 64 64 65 66 66 66 65 63 63 64 65 65 66 66 67 68 68 69 69 69 69 69 70 69 69 69 69 69 70 70 71 71 72 72 73 74 75 75 76 76 77 77 78 79 80 81 83 84 85 86 87 88 88 88 88 88 88 88 88 88 88 89 90 90 91 91 92 93 93 93 94 95 95 95 96 97
67 66 66 66 67 68 68 68 67 68 67 66 65 64 64 63 63 63 64 65 66 68 68 69 69 70 70 70 71 71 71 72 73 73 74 74 75 75 76 76 76 75 75 75 75 76 76 76 76 77 77 77 78 78 79 80 81 82 84 85 86 86 86 86 86 86 86 86 87 87 88 88 89 90 91 92 93 93 94 95 96 96 96 95 96 97
69 69 68 67 67 68 67 65 63 62 62 61 60 60 61 62 63 64 65 66 67 68 68 68 69 69 69 70 70 71 72 72 73 74 75 75 76 77 77 76 75 75 75 74 74 74 74 74 73 73 73 73 73 74 74 75 76 77 78 80 81 82 83 84 84 85 85 86 87 88 89 90 91 92 93 94 95 96 97 97 97 98 98 97 96 96
63 63 62 62 62 61 60 59 58 59 59 60 61 62 62 63 63 63 63 64 65 66 66 67 67 67 68 68 69 70 71 71 72 73 74 74 75 75 75 74 73 72 72 71 71 71 70 70 71 71 70 70 71 71 72 74 75 76 78 79 81 82 83 84 85 86 87 88 89 90 90 91 92 93 94 96 97 98 99 99 98 98 98 99 100 99
Wind_Direction
214 215 215 215 217 219 220 221 221 222 223 224 225 227 228 229 231 231 232 232 233 235 234 234 229 225 229 231 231 232 234 239 240 237 235 232 228 225 225 228 229 231 235 237 229 218 223 228 228 232 238 243 250 256 264 271 275 281 286 291 296 302 307 312 316 319 320 322 324 326 327 329 329 326 322 319 319 319 319 318 318 317 315 314 313 312
215 215 216 217 219 220 221 221 222 223 224 225 227 228 230 231 232 233 235 236 236 237 236 236 234 227 228 232 232 233 233 236 238 236 235 234 234 232 231 232 232 232 236 238 233 225 225 231 231 233 239 245 250 255 262 270 274 280 284 289 293 296 299 302 306 311 314 317 319 320 322 324 324 323 319 316 315 315 316 317 317 315 313 313 313 312
217 216 217 220 221 221 222 222 223 224 225 226 228 229 231 232 234 235 238 238 239 239 238 238 236 229 227 232 234 233 232 232 235 234 233 235 236 237 235 234 234 235 238 239 236 231 230 235 237 236 240 244 249 256 262 268 274 280 284 288 292 295 298 299 302 307 311 314 315 315 317 318 319 318 315 312 310 311 313 314 313 311 311 311 310 310
219 220 221 223 224 224 224 224 225 226 227 228 230 231 233 234 235 237 238 239 239 240 240 239 238 231 228 232 234 234 233 231 234 233 233 236 236 236 237 237 239 239 241 241 239 236 233 237 241 242 243 246 251 257 261 266 272 278 283 286 289 293 297 299 301 304 307 310 311 311 312 313 313 312 310 307 305 306 309 309 309 309 309 308 308 308
219 221 223 224 225 225 226 226 227 228 229 230 231 233 234 235 236 237 238 240 240 241 241 240 239 233 228 231 233 235 235 231 233 233 231 235 236 236 239 241 242 242 244 245 244 242 239 239 243 245 248 251 253 257 260 265 271 276 280 283 287 291 294 296 298 301 305 307 307 308 308 309 310 308 306 303 303 304 304 304 305 306 306 306 306 305
219 220 222 223 223 224 225 226 227 229 230 230 231 233 234 235 236 237 239 240 241 242 241 240 242 237 229 231 233 234 236 232 232 233 230 233 237 239 241 242 243 244 246 248 248 247 246 245 246 248 251 254 257 259 263 267 270 273 277 281 285 288 291 293 296 299 302 305 305 305 306 307 307 305 303 303 304 303 302 302 303 303 303 304 303 302
218 220 222 223 224 224 224 225 226 228 229 230 231 233 234 235 237 238 239 240 240 241 242 241 243 242 232 230 233 234 236 236 234 233 231 233 237 240 241 244 246 246 246 247 248 250 250 250 251 252 255 258 260 263 267 269 271 273 276 280 283 286 289 291 294 297 300 302 303 303 304 305 305 304 303 303 303 302 301 301 301 301 302 302 301 301
217 219 221 224 224 225 225 226 227 229 230 231 232 233 234 235 236 238 238 240 241 242 242 242 244 245 237 229 233 235 236 239 238 235 233 235 238 240 242 246 249 249 249 249 249 250 251 252 253 255 258 260 263 266 269 272 274 276 278 280 282 285 288 291 293 295 297 299 300 301 302 302 302 303 302 302 301 300 300 300 299 300 300 301 301 301
218 220 221 223 224 225 226 226 227 228 230 231 231 233 234 236 237 238 239 240 242 242 243 243 243 247 243 230 230 237 238 239 241 239 237 238 241 243 243 245 248 250 252 253 252 253 253 254 255 257 259 262 265 268 271 274 276 278 280 281 283 285 288 290 292 294 295 297 298 299 300 300 300 301 301 300 298 298 299 298 297 297 298 299 300 300
219 221 222 223 224 224 225 225 226 226 228 229 230 232 233 236 237 238 239 240 241 242 243 243 242 246 247 234 227 236 240 240 241 241 241 243 245 245 245 245 247 250 252 253 253 254 255 255 256 258 260 263 266 269 272 274 276 278 281 283 286 287 289 290 291 292 293 295 296 297 298 297 298 299 298 296 296 296 297 296 296 297 297 298 298 298
219 221 222 223 224 225 225 226 226 226 227 228 229 231 233 235 236 237 238 239 240 242 242 243 242 245 249 240 229 233 239 241 241 243 244 245 246 247 247 247 248 250 252 253 253 254 255 256 258 260 262 264 266 268 271 273 276 278 282 284 286 288 289 290 290 291 292 293 294 296 296 296 296 296 295 294 294 294 295 294 295 297 297 297 297 296
220 221 222 223 224 225 226 227 228 228 228 229 230 231 232 234 235 236 238 238 240 242 243 243 243 244 248 247 236 233 237 240 242 244 245 246 247 248 249 250 250 251 253 254 255 256 257 258 260 261 262 264 266 268 270 273 276 279 282 283 285 287 288 289 289 290 292 293 294 295 295 295 294 293 292 292 293 293 294 294 295 296 297 296 296 295
222 223 223 224 224 225 226 228 229 230 230 231 231 232 232 234 235 236 238 239 241 243 243 244 244 245 248 250 244 237 236 239 242 244 246 248 250 251 251 252 252 253 255 256 257 259 260 261 262 263 264 266 267 269 271 274 276 279 280 282 283 284 286 287 287 289 291 293 295 295 294 293 293 292 292 291 292 293 294 294 295 296 296 295 295 294
225 225 225 226 226 227 229 230 231 232 233 234 234 235 235 235 237 238 239 240 242 243 244 245 245 246 247 249 247 242 238 239 242 245 247 247 249 250 251 252 253 254 256 257 259 261 262 263 264 265 267 268 269 270 272 274 275 277 278 279 281 282 283 284 285 287 289 292 294 294 293 292 292 292 291 292 293 294 294 294 294 294 294 293 293 293
228 229 229 230 230 231 232 232 233 234 234 234 234 235 235 236 238 239 240 241 242 242 244 244 245 246 246 247 249 247 243 241 242 244 245 246 246 247 249 250 252 253 255 256 258 259 261 262 264 266 267 268 268 269 270 272 273 275 276 277 278 279 280 282 283 285 288 290 292 292 292 292 292 292 293 294 295 295 294 294 293 293 292 292 292 292
226 227 228 229 231 231 232 233 233 234 234 234 234 234 234 235 236 238 239 240 241 242 242 244 245 246 247 248 250 249 245 243 243 244 246 247 247 247 248 249 251 252 254 255 257 258 259 261 262 264 265 265 266 268 269 270 272 273 274 276 277 278 279 281 283 285 287 289 290 290 290 291 292 293 295 296 297 296 295 295 295 294 294 294 294 293
229 229 228 228 229 230 231 232 233 234 235 235 236 236 237 237 238 238 240 240 241 242 242 244 245 246 246 247 249 250 248 245 244 245 247 249 250 250 250 251 252 253 254 255 257 258 259 260 261 262 263 264 265 267 268 269 271 272 274 275 276 278 279 281 283 285 286 287 287 288 290 290 291 293 294 294 294 294 293 293 293 293 292 292 292 291
232 233 232 231 232 232 232 232 233 234 235 236 237 237 238 238 238 238 240 240 241 242 243 244 245 245 246 247 249 251 250 247 245 246 246 248 251 252 253 253 254 255 256 256 258 259 260 261 261 262 263 264 266 267 268 269 271 272 274 275 277 279 281 283 284 285 285 286 288 289 290 290 290 290 290 290 290 290 290 290 290 290 290 290 289 289
232 234 234 233 233 233 233 234 234 234 235 236 236 236 237 238 238 238 240 241 242 244 244 244 245 244 245 246 247 249 249 248 247 246 247 248 250 252 254 254 255 256 257 258 259 260 261 261 262 263 264 265 266 267 269 271 272 274 276 278 279 281 282 283 284 285 286 287 288 289 289 289 288 288 288 287 287 287 287 287 288 289 289 290 290 289
232 234 235 234 234 234 234 234 234 234 234 235 236 236 236 238 239 239 240 241 243 244 245 245 244 243 243 244 244 246 248 249 249 248 248 248 249 250 252 254 256 257 258 259 260 260 261 262 263 264 266 267 269 271 273 275 277 278 279 280 280 281 282 283 284 285 285 286 286 286 286 286 286 286 286 285 285 285 285 285 286 287 289 289 289 289
233 235 236 236 236 236 236 236 236 236 236 236 236 237 237 239 240 240 241 241 243 245 245 245 244 242 241 243 244 245 247 249 249 250 250 251 251 252 253 254 255 257 258 259 260 261 262 263 265 266 268 270 272 274 276 277 278 279 279 279 280 281 282 282 283 283 284 284 284 284 284 285 285 285 285 284 284 284 284 284 285 286 287 287 287 287
233 235 237 238 238 238 238 238 238 238 238 237 237 238 238 239 240 241 241 240 242 244 245 245 244 241 240 242 243 244 246 247 249 250 252 253 253 253 253 253 254 255 257 258 260 263 265 266 267 268 269 270 271 273 274 275 275 276 277 278 279 280 281 281 282 283 283 284 283 284 284 284 284 284 284 283 282 282 283 283 284 284 284 284 284 285
235 237 238 240 240 240 240 239 239 239 239 238 238 237 238 239 239 241 242 241 242 243 244 246 244 240 239 243 245 246 247 248 249 251 253 254 254 254 254 254 254 255 257 260 262 264 266 267 268 269 269 270 271 272 273 273 274 275 276 277 279 280 280 281 282 282 283 283 284 284 285 285 284 283 283 282 281 281 281 281 282 282 283 283 283 283
235 237 239 240 241 241 241 240 240 240 239 239 239 238 240 241 240 242 243 242 243 242 243 246 245 242 242 245 248 250 250 250 252 253 255 256 257 258 259 258 258 259 260 262 263 264 265 266 267 269 270 271 272 273 273 274 274 275 277 278 279 280 280 281 282 283 283 284 285 285 286 286 285 283 282 282 282 281 280 280 280 281 281 281 282 282
237 238 238 239 240 240 240 240 239 240 240 241 241 241 241 242 242 243 243 244 244 243 244 246 246 245 247 249 250 252 253 253 254 256 258 260 262 263 264 264 263 263 263 263 264 265 266 266 268 270 271 272 272 272 273 273 274 275 277 278 278 279 280 281 282 283 284 285 285 286 286 286 284 283 282 282 281 280 279 279 279 280 280 280 280 281
238 239 239 240 241 241 241 241 241 242 244 245 244 244 245 245 246 247 247 248 247 246 248 249 248 248 250 251 251 253 255 255 257 259 262 265 266 266 266 265 265 265 266 267 268 269 269 269 270 271 271 272 272 273 273 274 275 276 277 278 278 279 280 281 282 283 284 285 285 286 286 286 284 283 282 280 279 278 278 278 279 279 280 280 280 281
238 239 239 240 241 242 243 244 245 246 247 247 247 248 249 249 250 250 251 250 250 251 251 250 249 248 249 251 252 254 258 260 261 262 264 264 264 264 265 266 266 268 269 271 272 272 272 272 273 274 274 274 275 276 276 277 277 278 279 279 280 280 281 282 283 284 285 285 286 286 286 285 284 283 281 280 279 279 279 279 280 280 281 282 282 282
238 239 239 240 242 242 243 244 244 244 245 246 246 247 247 248 249 250 250 250 251 252 250 248 249 248 247 250 254 256 259 261 261 261 261 262 263 264 266 267 269 270 271 271 272 272 273 274 275 276 276 277 277 278 278 278 279 279 280 281 282 283 283 283 284 284 285 285 285 285 285 285 284 283 282 282 281 281 281 281 282 282 283 284 284 284
239 240 241 242 243 243 244 245 245 245 246 246 246 246 246 247 248 248 250 249 250 252 251 249 250 249 247 249 252 255 257 259 260 261 262 263 264 266 267 269 270 270 271 271 271 272 273 274 275 277 277 278 279 279 279 280 281 282 283 284 284 284 285 285 285 286 286 286 286 286 285 285 284 284 284 284 283 283 284 284 284 285 285 285 285 285
241 241 242 243 244 244 244 246 246 247 247 247 247 247 247 248 249 250 251 251 252 254 254 252 252 250 250 252 254 256 259 261 263 265 265 265 266 267 268 269 270 270 271 272 272 273 274 275 276 277 278 279 280 280 281 282 283 284 284 284 285 286 286 287 287 288 288 287 287 287 287 286 285 285 285 285 285 285 286 286 287 287 286 286 285 284
242 242 243 243 244 244 244 246 247 247 248 248 247 247 247 248 250 251 253 254 255 256 256 255 255 253 253 256 258 259 261 261 263 265 266 267 267 267 267 268 269 270 271 272 274 275 276 277 277 278 279 280 281 282 283 283 283 283 283 284 284 285 285 286 286 287 287 287 288 288 287 287 286 286 286 286 286 286 287 287 287 286 285 285 284 283
242 243 243 244 245 245 245 247 248 248 249 248 247 247 248 250 252 254 255 255 256 257 257 256 256 256 256 258 259 259 260 260 261 262 264 265 266 266 267 268 269 271 272 273 274 276 277 277 278 279 280 280 281 282 282 283 283 283 283 284 284 284 285 285 285 286 286 287 287 287 287 287 286 286 286 286 286 286 286 286 285 284 284 283 283 282
242 243 244 244 245 246 246 247 248 248 248 247 247 249 252 253 255 255 255 255 256 258 258 258 259 258 259 259 258 258 259 260 260 260 261 262 264 265 267 268 269 271 272 274 274 275 276 276 278 279 279 280 280 281 281 282 282 282 283 283 284 284 284 285 285 285 286 286 287 287 286 286 286 286 285 285 284 284 284 283 283 282 282 282 282 282
241 242 243 243 244 245 245 246 246 245 246 248 250 252 254 254 254 254 254 254 255 256 257 258 259 258 258 259 260 260 260 260 260 260 260 261 263 264 266 267 268 270 272 273 274 274 275 276 277 277 278 278 279 279 280 280 281 281 281 281 282 282 283 284 284 285 285 286 286 286 286 285 285 284 284 284 283 283 282 281 281 281 281 282 282 283
240 241 242 243 243 244 244 244 244 244 247 250 251 251 252 252 252 253 254 254 254 255 256 257 259 259 260 261 262 262 261 261 261 261 261 262 263 264 265 267 268 270 271 272 273 274 275 275 276 276 277 277 278 278 279 279 279 280 280 280 281 281 282 283 284 285 285 285 285 285 284 284 284 283 283 283 283 282 281 280 280 280 281 282 282 282
242 242 243 243 243 244 244 244 245 247 249 250 249 249 251 252 253 255 256 256 256 257 258 258 260 260 261 261 261 261 261 261 261 262 262 263 264 265 266 267 268 269 270 271 272 272 273 274 274 275 276 276 277 277 278 278 279 279 280 280 280 281 282 282 283 284 284 284 284 284 284 283 283 283 283 283 282 282 281 280 280 281 281 282 282 283
242 242 243 244 244 245 246 247 248 249 249 247 247 250 252 253 255 256 257 257 256 257 258 259 260 260 260 260 260 260 261 261 262 263 264 265 265 266 267 267 268 268 269 270 271 271 272 273 274 274 275 275 276 276 276 276 277 278 278 279 279 280 281 282 283 283 283 284 284 284 284 283 283 283 283 283 283 283 282 282 282 282 282 282 283 283
242 242 243 244 245 246 247 248 248 249 249 248 249 251 253 253 254 255 256 255 255 257 259 260 261 261 260 260 259 260 260 261 262 264 265 266 267 268 268 269 269 270 270 271 271 271 272 272 273 273 274 274 274 274 274 275 275 276 277 277 278 280 281 282 282 283 283 284 284 284 284 284 284 284 284 284 284 284 284 284 283 283 283 284 284 284
243 243 243 243 244 245 246 248 249 250 251 251 251 252 252 253 254 254 254 255 255 258 260 261 261 260 260 260 260 261 262 263 264 265 266 267 268 269 269 270 270 271 271 271 271 272 272 273 273 273 273 273 273 273 273 273 274 274 275 276 277 279 280 281 282 283 283 283 284 284 284 284 284 284 284 284 284 285 285 285 285 285 285 286 286 286
244 244 244 244 244 245 247 248 250 251 253 253 252 252 252 252 253 253 254 255 256 257 257 259 259 259 260 261 262 262 263 264 265 266 266 267 268 269 270 270 271 271 272 272 273 273 273 273 273 273 273 273 273 272 272 272 272 272 273 275 277 278 280 281 282 283 283 283 283 284 284 284 284 284 284 284 284 285 286 286 286 286 287 287 287 288
245 245 245 246 246 247 248 249 250 252 253 253 253 253 253 253 252 252 255 257 257 256 257 258 259 258 258 259 260 260 261 263 264 265 266 267 268 269 269 270 271 272 272 273 273 273 273 273 273 273 273 272 272 272 271 270 270 270 272 274 276 279 281 282 283 283 283 283 284 284 284 285 285 285 285 285 286 286 286 287 287 287 287 287 288 288
244 245 245 246 246 247 248 250 251 252 252 252 252 252 252 253 253 254 257 258 257 256 256 256 257 256 255 255 256 258 259 261 262 264 265 266 267 267 268 268 269 270 270 271 272 273 273 273 273 272 272 272 272 271 271 270 269 270 272 274 277 279 282 283 284 284 284 284 284 285 285 286 286 286 286 286 286 286 287 287 287 287 287 287 287 287
244 244 245 245 246 247 247 247 249 250 250 250 251 252 253 255 257 258 258 257 255 254 253 253 254 255 255 255 255 256 258 259 261 262 263 264 264 265 265 265 266 266 268 269 270 271 271 271 271 271 271 271 271 271 270 270 269 270 272 274 277 281 284 286 286 286 285 285 285 285 286 286 286 286 286 286 286 286 286 287 287 287 287 287 287 287
243 244 245 247 247 248 248 248 250 252 251 250 250 252 253 254 255 255 255 255 255 254 253 253 255 256 257 258 258 258 258 259 260 261 263 263 263 263 263 263 263 264 266 268 269 270 271 271 271 271 271 271 271 271 270 270 270 271 273 276 279 282 284 286 286 286 286 286 286 286 286 287 287 286 286 286 286 286 286 286 286 287 287 287 288 288
245 246 248 248 248 248 248 249 249 248 248 248 248 250 252 252 253 254 255 256 257 258 258 258 258 259 260 261 262 262 262 262 262 262 263 263 263 263 262 263 263 265 267 269 270 272 273 273 273 273 273 273 273 273 272 273 273 274 276 278 280 283 284 286 286 286 286 287 287 287 287 287 287 287 287 286 286 287 287 287 287 287 287 287 287 287
243 244 244 245 245 245 246 246 246 246 247 248 250 252 254 256 256 257 259 259 260 261 262 262 262 263 263 264 266 267 267 268 268 268 268 267 266 266 265 266 267 269 270 272 273 275 276 276 277 277 277 277 276 276 276 275 276 277 278 280 282 283 284 285 285 285 286 286 286 286 286 286 287 286 286 286 286 286 286 286 286 286 286 285 285 285
236 238 239 241 243 244 245 247 248 249 250 251 253 255 257 258 258 258 258 258 259 260 261 261 262 263 264 265 266 267 268 269 270 270 270 270 269 269 269 270 271 272 273 274 275 275 276 277 277 277 277 278 277 277 277 277 278 278 279 280 281 281 282 283 283 284 284 284 284 284 285 285 285 285 285 284 284 284 283 283 283 283 283 283 282 282
236 238 240 243 245 246 248 249 250 251 252 254 256 258 259 258 257 257 257 257 257 258 259 260 261 263 264 265 266 266 267 267 268 269 269 270 270 271 271 272 273 273 273 274 274 274 274 275 275 276 276 276 276 276 276 277 277 278 279 279 280 281 282 283 283 283 284 284 284 283 283 283 283 283 282 282 282 281 281 280 280 279 280 280 280 280
240 242 244 247 249 250 251 252 253 254 254 256 257 257 256 255 254 254 255 256 257 258 259 260 261 263 264 265 266 267 267 267 268 269 270 271 272 272 273 274 274 274 274 274 274 274 274 275 275 276 276 277 278 278 279 280 280 281 282 282 283 283 284 283 283 283 283 282 282 281 281 280 280 279 279 279 279 278 278 277 277 277 277 278 278 279
244 246 247 249 250 252 253 254 254 253 253 253 253 252 252 252 253 254 255 256 257 258 259 260 261 262 263 263 264 265 266 267 268 269 270 271 272 273 274 275 276 276 276 276 277 277 277 277 277 278 279 279 280 281 281 281 282 282 282 282 282 282 281 281 280 279 279 278 277 277 277 276 276 276 276 276 276 276 275 275 275 275 276 276 276 277
246 247 248 250 251 252 252 252 252 251 251 252 252 252 253 254 255 255 256 257 258 259 259 260 260 261 261 262 263 263 264 266 266 267 269 270 271 272 273 274 274 275 275 276 276 276 276 277 277 277 277 278 278 278 278 278 278 278 277 277 277 277 276 276 275 274 274 273 273 273 273 273 273 273 273 273 273 274 274 273 273 273 275 277 278 278
Height
5809 5811 5815 5819 5823 5825 5827 5830 5832 5834 5835 5837 5839 5840 5842 5844 5845 5847 5848 5850 5852 5853 5855 5857 5859 5861 5861 5863 5864 5865 5866 5868 5869 5870 5871 5872 5873 5875 5876 5877 5878 5878 5878 5879 5881 5882 5882 5883 5883 5884 5884 5884 5884 5884 5884 5884 5884 5885 5885 5884 5884 5884 5884 5883 5883 5882 5881 5881 5880 5879 5878 5877 5876 5875 5874 5873 5872 5871 5870 5869 5868 5867 5866 5865 5864 5863
5806 5809 5814 5817 5819 5821 5823 5826 5828 5830 5832 5834 5836 5837 5839 5841 5842 5844 5846 5848 5850 5851 5853 5854 5856 5858 5860 5860 5861 5863 5865 5867 5867 5868 5869 5870 5871 5873 5874 5875 5876 5876 5876 5877 5879 5880 5880 5881 5882 5882 5883 5883 5883 5883 5883 5883 5883 5883 5883 5882 5882 5882 5882 5882 5881 5881 5880 5879 5879 5878 5876 5875 5874 5873 5872 5871 5870 5869 5868 5867 5866 5865 5864 5863 5862 5861
5804 5808 5811 5812 5814 5817 5819 5822 5825 5827 5829 5831 5833 5834 5836 5838 5840 5842 5844 5846 5847 5848 5850 5851 5853 5856 5857 5857 5859 5861 5863 5865 5865 5866 5867 5868 5869 5871 5872 5873 5873 5874 5874 5875 5877 5878 5878 5879 5880 5881 5881 5881 5881 5881 5881 5881 5881 5881 5881 5880 5880 5880 5880 5880 5879 5879 5878 5878 5877 5876 5875 5874 5873 5871 5870 5869 5868 5866 5865 5865 5864 5863 5862 5861 5859 5858
5803 5806 5807 5809 5812 5815 5817 5819 5822 5824 5826 5828 5830 5832 5834 5836 5838 5840 5841 5842 5844 5845 5847 5848 5850 5853 5855 5855 5857 5858 5861 5862 5863 5864 5865 5866 5867 5868 5869 5870 5871 5872 5872 5873 5874 5875 5876 5877 5877 5878 5879 5879 5879 5879 5879 5879 5879 5879 5878 5878 5878 5878 5877 5877 5877 5876 5876 5875 5874 5874 5873 5872 5871 5869 5868 5867 5866 5865 5864 5862 5861 5860 5859 5858 5857 5855
5799 5802 5804 5807 5810 5812 5814 5816 5819 5821 5823 5825 5828 5830 5832 5833 5835 5836 5838 5839 5841 5842 5844 5845 5846 5850 5852 5853 5854 5855 5857 5860 5860 5861 5863 5864 5865 5865 5866 5867 5868 5869 5870 5870 5872 5872 5874 5875 5875 5876 5876 5877 5877 5877 5877 5877 5877 5877 5876 5875 5875 5875 5875 5875 5874 5874 5873 5872 5871 5871 5870 5869 5868 5867 5866 5865 5864 5863 5861 5860 5858 5857 5856 5855 5854 5852
5794 5797 5800 5803 5805 5808 5811 5813 5816 5818 5820 5822 5825 5827 5828 5830 5831 5833 5834 5836 5837 5839 5841 5842 5843 5846 5849 5850 5851 5853 5854 5857 5858 5859 5861 5861 5862 5862 5863 5865 5865 5867 5867 5868 5869 5870 5871 5872 5873 5874 5874 5874 5875 5875 5875 5875 5875 5875 5874 5873 5873 5872 5872 5872 5871 5871 5870 5869 5868 5868 5867 5866 5865 5864 5863 5862 5861 5860 5858 5857 5855 5854 5853 5852 5851 5849
5791 5794 5797 5800 5802 5804 5807 5809 5812 5814 5816 5819 5821 5823 5825 5826 5828 5829 5831 5832 5834 5835 5838 5839 5840 5842 5846 5848 5848 5850 5851 5853 5855 5857 5858 5859 5859 5859 5860 5861 5863 5864 5865 5866 5867 5868 5868 5869 5870 5871 5871 5871 5872 5872 5872 5872 5872 5872 5872 5871 5870 5870 5869 5869 5868 5868 5867 5866 5865 5864 5864 5863 5862 5861 5860 5859 5858 5857 5855 5854 5852 5851 5850 5849 5848 5846
5789 5792 5794 5797 5799 5801 5804 5807 5809 5811 5813 5816 5819 5820 5821 5823 5824 5826 5827 5829 5830 5832 5834 5836 5837 5838 5842 5846 5846 5847 5849 5850 5852 5854 5855 5856 5855 5856 5858 5859 5860 5861 5862 5863 5864 5865 5865 5866 5867 5867 5867 5868 5868 5869 5869 5869 5869 5869 5869 5868 5868 5867 5866 5865 5865 5865 5864 5863 5862 5861 5860 5860 5859 5858 5857 5856 5855 5853 5852 5851 5849 5848 5846 5845 5844 5843
5786 5788 5791 5793 5796 5799 5802 5804 5806 5808 5810 5812 5815 5816 5817 5819 5820 5822 5824 5825 5827 5829 5830 5832 5834 5833 5837 5843 5844 5844 5846 5847 5849 5851 5852 5852 5852 5854 5856 5857 5857 5858 5859 5860 5861 5861 5862 5863 5863 5864 5864 5865 5865 5865 5865 5865 5865 5865 5865 5865 5864 5863 5862 5862 5861 5861 5861 5860 5859 5858 5857 5856 5855 5855 5854 5852 5851 5850 5849 5847 5846 5844 5843 5842 5840 5839
5781 5784 5787 5789 5793 5796 5799 5800 5801 5803 5805 5808 5810 5811 5813 5815 5817 5819 5820 5822 5823 5825 5827 5829 5831 5830 5832 5839 5842 5842 5843 5845 5846 5847 5848 5848 5850 5851 5852 5853 5854 5855 5855 5856 5857 5858 5858 5859 5860 5860 5861 5861 5861 5862 5862 5862 5862 5861 5861 5861 5860 5859 5858 5858 5857 5857 5857 5856 5855 5855 5854 5853 5852 5851 5850 5849 5847 5846 5845 5844 5842 5841 5840 5838 5836 5835
5777 5779 5782 5786 5789 5792 5794 5795 5797 5799 5801 5803 5805 5806 5809 5810 5812 5814 5816 5818 5819 5820 5824 5825 5827 5828 5828 5835 5840 5840 5840 5842 5843 5844 5844 5845 5847 5848 5849 5850 5851 5851 5852 5852 5853 5854 5855 5855 5856 5857 5857 5858 5858 5858 5858 5858 5858 5858 5857 5856 5855 5854 5854 5853 5853 5853 5853 5852 5852 5851 5850 5849 5848 5847 5846 5845 5843 5842 5841 5840 5838 5837 5836 5834 5832 5831
5773 5776 5779 5782 5785 5787 5789 5791 5792 5794 5796 5799 5800 5803 5805 5806 5808 5810 5812 5814 5815 5817 5820 5821 5824 5825 5825 5831 5837 5837 5837 5838 5839 5840 5841 5842 5843 5844 5845 5846 5847 5847 5848 5848 5849 5850 5851 5852 5852 5853 5853 5854 5854 5854 5854 5854 5854 5854 5853 5852 5851 5850 5850 5849 5848 5848 5848 5848 5848 5847 5846 5845 5844 5843 5842 5840 5839 5838 5837 5835 5834 5833 5832 5830 5828 5826
5770 5772 5775 5778 5781 5783 5784 5786 5788 5791 5793 5795 5797 5799 5800 5801 5803 5805 5807 5809 5811 5814 5816 5818 5820 5821 5823 5828 5832 5833 5834 5835 5836 5837 5838 5839 5840 5840 5841 5842 5842 5843 5843 5844 5845 5846 5847 5848 5848 5849 5849 5850 5850 5850 5850 5850 5850 5850 5849 5848 5847 5846 5846 5845 5844 5844 5843 5843 5843 5843 5842 5841 5840 5839 5837 5836 5835 5833 5832 5831 5830 5829 5827 5825 5824 5822
5767 5769 5772 5775 5777 5779 5781 5783 5786 5789 5791 5792 5794 5795 5797 5798 5800 5802 5804 5806 5808 5811 5812 5814 5816 5818 5822 5824 5825 5828 5831 5832 5833 5834 5834 5835 5836 5836 5837 5838 5838 5839 5839 5840 5841 5842 5843 5843 5844 5844 5845 5845 5845 5845 5846 5846 5846 5845 5844 5844 5843 5842 5842 5841 5840 5839 5839 5839 5839 5838 5837 5836 5835 5834 5832 5831 5830 5829 5828 5827 5826 5824 5823 5821 5819 5818
5763 5766 5770 5773 5775 5777 5779 5781 5783 5785 5786 5787 5789 5791 5793 5795 5797 5798 5800 5802 5804 5806 5808 5810 5811 5814 5819 5821 5821 5824 5827 5829 5830 5830 5831 5831 5832 5832 5833 5834 5834 5834 5835 5836 5837 5837 5838 5839 5840 5840 5840 5840 5840 5841 5841 5841 5841 5840 5840 5839 5839 5838 5837 5836 5836 5836 5835 5835 5834 5833 5832 5831 5830 5828 5827 5826 5825 5824 5822 5821 5820 5819 5818 5816 5815 5813
5759 5762 5766 5769 5771 5773 5775 5776 5778 5779 5780 5782 5784 5786 5789 5791 5792 5794 5795 5797 5800 5801 5803 5805 5808 5812 5816 5817 5817 5819 5823 5825 5825 5826 5826 5827 5828 5829 5829 5830 5830 5830 5831 5832 5832 5833 5834 5835 5836 5836 5835 5836 5836 5836 5836 5836 5836 5835 5835 5835 5834 5833 5833 5832 5832 5831 5831 5830 5829 5828 5827 5826 5825 5823 5821 5820 5819 5818 5816 5815 5815 5813 5812 5811 5809 5808
5756 5759 5762 5764 5765 5767 5769 5770 5772 5774 5776 5778 5781 5783 5786 5788 5789 5790 5791 5794 5795 5796 5798 5801 5805 5809 5811 5812 5813 5815 5818 5820 5821 5822 5822 5822 5823 5823 5824 5825 5826 5826 5827 5827 5828 5829 5830 5830 5831 5831 5830 5830 5831 5831 5831 5831 5831 5831 5830 5830 5829 5828 5828 5828 5827 5827 5826 5825 5824 5823 5822 5820 5819 5817 5816 5815 5814 5812 5811 5810 5810 5809 5808 5807 5805 5803
5754 5756 5758 5760 5761 5763 5765 5766 5767 5769 5772 5774 5777 5781 5783 5783 5784 5786 5787 5789 5790 5791 5794 5798 5801 5805 5807 5808 5811 5811 5813 5815 5816 5817 5817 5817 5817 5818 5819 5820 5821 5821 5822 5823 5823 5824 5824 5825 5825 5825 5825 5825 5825 5825 5825 5826 5826 5826 5825 5825 5824 5824 5823 5823 5822 5821 5820 5820 5818 5817 5816 5815 5814 5813 5812 5811 5810 5808 5807 5806 5805 5804 5803 5802 5800 5799
5749 5750 5752 5754 5756 5758 5760 5760 5762 5765 5767 5770 5773 5776 5777 5777 5779 5782 5783 5784 5786 5788 5791 5794 5797 5800 5803 5805 5807 5807 5808 5809 5811 5812 5812 5812 5813 5813 5814 5815 5816 5816 5817 5818 5818 5819 5819 5819 5819 5819 5819 5819 5819 5820 5820 5821 5821 5821 5820 5820 5819 5818 5818 5817 5816 5816 5815 5814 5813 5812 5811 5810 5809 5809 5808 5807 5805 5804 5803 5801 5800 5798 5797 5795 5794 5793
5743 5745 5746 5748 5751 5752 5753 5754 5757 5761 5763 5765 5767 5770 5771 5773 5775 5778 5778 5781 5783 5784 5787 5789 5792 5796 5799 5801 5803 5803 5804 5805 5806 5807 5807 5807 5808 5809 5809 5810 5811 5811 5812 5812 5813 5813 5813 5813 5813 5813 5813 5813 5814 5814 5815 5815 5815 5815 5814 5814 5813 5812 5812 5812 5811 5810 5809 5808 5808 5807 5806 5805 5805 5804 5803 5802 5801 5799 5798 5796 5795 5793 5791 5789 5787 5786
5737 5739 5741 5743 5745 5746 5748 5751 5755 5758 5759 5761 5763 5765 5768 5770 5771 5773 5775 5777 5779 5780 5782 5784 5786 5791 5796 5797 5798 5799 5800 5800 5801 5802 5802 5802 5804 5805 5805 5806 5806 5807 5807 5807 5807 5806 5806 5807 5807 5807 5807 5808 5809 5809 5810 5810 5809 5809 5808 5808 5807 5807 5807 5806 5805 5805 5804 5803 5802 5802 5801 5800 5800 5799 5798 5797 5795 5794 5792 5791 5789 5787 5785 5783 5781 5779
5732 5734 5736 5737 5739 5742 5746 5749 5751 5752 5754 5756 5758 5761 5763 5765 5767 5768 5769 5772 5774 5775 5777 5778 5781 5787 5791 5792 5793 5795 5795 5796 5796 5796 5797 5798 5799 5800 5801 5802 5802 5802 5802 5801 5801 5801 5801 5801 5802 5802 5802 5803 5804 5805 5805 5805 5804 5804 5803 5802 5802 5802 5801 5801 5800 5799 5798 5798 5797 5796 5795 5795 5794 5793 5792 5791 5790 5788 5787 5785 5783 5781 5779 5777 5775 5773
5727 5729 5730 5731 5735 5738 5740 5742 5744 5746 5749 5751 5753 5756 5758 5759 5762 5763 5764 5768 5770 5770 5772 5774 5776 5782 5787 5788 5789 5790 5791 5791 5791 5792 5792 5793 5794 5795 5796 5797 5797 5797 5797 5796 5796 5796 5796 5796 5796 5797 5797 5798 5799 5800 5800 5799 5799 5798 5797 5797 5797 5796 5795 5794 5794 5793 5792 5792 5791 5790 5790 5789 5789 5788 5786 5785 5784 5782 5781 5779 5777 5775 5773 5770 5768 5766
5720 5721 5723 5726 5728 5730 5732 5736 5738 5740 5743 5745 5749 5753 5754 5755 5758 5759 5760 5762 5763 5765 5768 5769 5771 5779 5784 5785 5786 5785 5785 5786 5786 5787 5787 5787 5788 5789 5790 5791 5792 5792 5792 5792 5792 5791 5791 5791 5791 5791 5792 5792 5793 5794 5794 5793 5792 5792 5792 5792 5791 5790 5789 5788 5787 5787 5786 5785 5784 5784 5784 5783 5782 5781 5780 5778 5777 5775 5773 5772 5769 5767 5766 5764 5761 5759
5714 5714 5716 5718 5719 5721 5724 5727 5731 5734 5739 5743 5747 5749 5750 5751 5752 5752 5754 5756 5757 5761 5764 5764 5768 5777 5780 5781 5781 5779 5779 5781 5781 5781 5782 5782 5783 5783 5783 5784 5785 5785 5786 5785 5785 5785 5785 5785 5786 5786 5787 5787 5787 5788 5787 5787 5786 5786 5786 5785 5784 5783 5782 5781 5781 5780 5779 5778 5778 5777 5777 5776 5775 5774 5772 5771 5769 5767 5766 5764 5762 5760 5758 5757 5755 5752
5705 5705 5708 5710 5711 5714 5718 5723 5729 5735 5738 5740 5742 5744 5745 5746 5746 5748 5750 5749 5752 5758 5759 5760 5767 5774 5775 5775 5776 5773 5772 5774 5775 5776 5777 5776 5776 5776 5775 5776 5777 5778 5778 5777 5777 5778 5778 5779 5779 5780 5781 5781 5780 5780 5780 5780 5779 5779 5779 5777 5777 5776 5775 5774 5774 5773 5772 5771 5770 5770 5769 5768 5767 5766 5765 5763 5761 5760 5758 5756 5755 5753 5751 5750 5748 5745
5695 5697 5701 5704 5706 5711 5718 5723 5728 5731 5732 5734 5736 5739 5740 5740 5742 5743 5741 5743 5750 5754 5752 5756 5765 5768 5768 5768 5768 5767 5767 5768 5769 5771 5770 5769 5769 5769 5769 5769 5770 5770 5770 5770 5770 5769 5770 5771 5772 5773 5773 5773 5772 5772 5772 5772 5771 5771 5770 5769 5769 5768 5768 5767 5766 5765 5765 5764 5763 5762 5761 5760 5759 5758 5757 5755 5754 5752 5750 5749 5747 5745 5743 5742 5740 5738
5688 5690 5695 5699 5703 5709 5715 5716 5718 5721 5723 5726 5729 5730 5731 5732 5733 5733 5733 5740 5746 5744 5744 5754 5760 5760 5761 5762 5762 5763 5763 5762 5762 5763 5763 5763 5763 5763 5763 5764 5764 5763 5763 5763 5762 5762 5762 5763 5764 5764 5764 5764 5764 5764 5764 5763 5763 5763 5762 5762 5761 5760 5760 5759 5759 5758 5757 5757 5756 5755 5754 5752 5751 5750 5748 5747 5746 5744 5743 5741 5740 5738 5736 5734 5732 5730
5682 5686 5692 5696 5699 5705 5708 5707 5710 5714 5716 5719 5720 5722 5724 5724 5725 5726 5730 5737 5739 5735 5741 5752 5753 5752 5756 5757 5758 5759 5757 5755 5756 5755 5757 5758 5757 5757 5758 5758 5757 5756 5755 5755 5754 5754 5756 5756 5757 5756 5756 5756 5756 5756 5755 5755 5754 5755 5754 5754 5753 5752 5751 5751 5750 5749 5749 5748 5748 5747 5746 5745 5743 5742 5741 5739 5737 5736 5734 5733 5732 5730 5728 5726 5724 5723
5677 5682 5688 5690 5693 5699 5699 5699 5704 5707 5707 5710 5713 5715 5717 5717 5719 5722 5726 5732 5732 5731 5739 5746 5742 5745 5752 5752 5754 5755 5752 5751 5751 5749 5750 5751 5751 5752 5753 5751 5749 5747 5747 5746 5746 5747 5749 5750 5750 5749 5748 5748 5747 5747 5747 5747 5747 5747 5746 5745 5744 5743 5742 5741 5740 5740 5739 5739 5739 5738 5737 5736 5735 5734 5732 5731 5729 5727 5725 5724 5723 5721 5719 5718 5716 5715
5671 5677 5681 5684 5686 5689 5692 5694 5697 5698 5699 5702 5704 5706 5709 5711 5714 5718 5723 5728 5727 5726 5734 5736 5733 5740 5748 5748 5750 5751 5747 5746 5746 5744 5744 5743 5743 5744 5744 5743 5742 5740 5739 5739 5739 5740 5741 5742 5742 5742 5741 5740 5739 5739 5739 5739 5739 5738 5737 5737 5736 5735 5734 5733 5732 5731 5731 5730 5730 5729 5728 5727 5726 5724 5723 5721 5719 5718 5717 5715 5714 5713 5711 5710 5709 5708
5667 5671 5675 5677 5677 5681 5687 5688 5688 5691 5691 5690 5692 5698 5704 5707 5712 5716 5719 5721 5720 5720 5726 5726 5726 5737 5744 5742 5743 5744 5739 5739 5740 5739 5737 5736 5735 5736 5736 5736 5735 5733 5732 5733 5734 5734 5734 5733 5734 5734 5734 5734 5733 5732 5731 5730 5730 5729 5728 5728 5727 5727 5726 5725 5724 5723 5722 5722 5721 5720 5719 5718 5716 5715 5713 5712 5710 5709 5708 5707 5706 5705 5704 5703 5702 5701
5661 5664 5668 5670 5670 5675 5681 5680 5681 5683 5678 5676 5686 5698 5704 5706 5708 5709 5710 5712 5714 5715 5716 5716 5723 5734 5735 5731 5733 5735 5732 5731 5733 5732 5730 5729 5729 5730 5730 5730 5728 5726 5725 5726 5727 5727 5726 5726 5727 5727 5727 5727 5725 5724 5723 5722 5722 5721 5721 5720 5719 5718 5717 5716 5715 5715 5714 5713 5712 5711 5710 5708 5707 5705 5704 5703 5702 5700 5700 5699 5698 5697 5697 5696 5695 5694
5654 5657 5661 5662 5663 5668 5671 5671 5672 5668 5662 5673 5692 5700 5699 5698 5699 5698 5701 5706 5708 5707 5708 5710 5716 5724 5724 5722 5725 5727 5724 5723 5724 5724 5723 5722 5723 5724 5724 5724 5722 5720 5720 5719 5719 5719 5719 5720 5720 5720 5720 5719 5718 5717 5716 5715 5714 5713 5712 5712 5711 5710 5708 5707 5706 5705 5705 5704 5703 5702 5701 5700 5699 5697 5696 5695 5694 5693 5692 5692 5691 5690 5689 5689 5688 5686
5648 5651 5652 5654 5656 5659 5661 5662 5658 5652 5660 5681 5692 5690 5688 5688 5688 5689 5693 5698 5700 5699 5700 5703 5708 5714 5717 5717 5718 5717 5715 5714 5714 5714 5715 5715 5717 5718 5718 5718 5716 5715 5714 5713 5713 5713 5712 5712 5712 5712 5712 5711 5710 5709 5707 5706 5705 5704 5703 5703 5702 5701 5700 5699 5698 5696 5695 5694 5694 5693 5693 5692 5691 5689 5689 5688 5687 5686 5685 5684 5684 5682 5682 5681 5680 5679
5642 5643 5644 5646 5648 5649 5651 5651 5647 5649 5665 5678 5679 5679 5681 5680 5680 5682 5684 5689 5693 5693 5693 5696 5701 5707 5710 5710 5709 5706 5705 5704 5703 5704 5707 5708 5709 5711 5711 5711 5710 5708 5707 5706 5706 5705 5705 5704 5704 5704 5704 5703 5702 5701 5699 5697 5696 5696 5695 5694 5694 5693 5692 5691 5690 5689 5687 5686 5685 5685 5684 5684 5683 5682 5681 5680 5679 5678 5677 5676 5676 5674 5673 5673 5671 5670
5635 5636 5637 5639 5640 5641 5643 5644 5645 5648 5656 5664 5669 5675 5677 5674 5675 5675 5674 5679 5686 5686 5685 5689 5694 5698 5701 5701 5699 5696 5694 5694 5694 5696 5699 5700 5701 5703 5703 5702 5701 5700 5699 5698 5697 5697 5697 5696 5696 5696 5695 5695 5694 5692 5691 5690 5688 5688 5687 5687 5686 5685 5685 5684 5683 5681 5680 5678 5677 5676 5676 5675 5675 5673 5672 5671 5671 5670 5669 5668 5666 5665 5664 5664 5663 5661
5627 5628 5631 5631 5632 5635 5636 5637 5639 5638 5644 5658 5669 5672 5670 5667 5668 5667 5663 5667 5678 5680 5679 5682 5685 5688 5691 5690 5688 5686 5684 5684 5687 5691 5692 5691 5692 5693 5693 5692 5692 5691 5691 5690 5689 5689 5688 5688 5688 5688 5688 5687 5686 5685 5684 5682 5681 5681 5680 5679 5679 5678 5677 5676 5675 5673 5672 5670 5669 5668 5667 5666 5666 5664 5663 5662 5661 5660 5659 5658 5656 5655 5654 5653 5652 5651
5619 5621 5623 5624 5624 5627 5628 5628 5630 5630 5640 5657 5665 5662 5660 5659 5660 5658 5651 5656 5672 5678 5673 5673 5675 5677 5679 5679 5678 5678 5676 5676 5681 5684 5682 5682 5684 5684 5683 5683 5683 5682 5682 5681 5681 5681 5681 5681 5680 5680 5680 5679 5679 5678 5677 5675 5674 5674 5673 5672 5672 5671 5670 5669 5667 5666 5664 5662 5661 5659 5658 5657 5656 5655 5654 5652 5651 5650 5649 5647 5646 5644 5643 5641 5641 5640
5612 5613 5615 5614 5616 5621 5622 5621 5622 5625 5635 5649 5654 5652 5652 5650 5651 5647 5640 5649 5669 5672 5665 5665 5665 5666 5669 5669 5669 5669 5668 5669 5673 5674 5672 5674 5675 5675 5675 5675 5674 5673 5673 5673 5672 5672 5673 5673 5672 5672 5672 5671 5671 5670 5669 5668 5667 5667 5666 5665 5664 5663 5663 5661 5660 5658 5656 5654 5652 5650 5648 5647 5646 5644 5643 5642 5641 5640 5638 5636 5634 5632 5631 5629 5628 5627
5604 5605 5606 5608 5611 5615 5615 5615 5616 5620 5630 5641 5644 5642 5642 5640 5638 5637 5636 5648 5661 5659 5656 5657 5655 5656 5661 5661 5659 5660 5660 5661 5664 5664 5664 5666 5666 5666 5667 5666 5666 5665 5665 5664 5664 5664 5664 5664 5664 5663 5663 5662 5662 5661 5661 5660 5659 5659 5658 5657 5656 5655 5655 5654 5652 5650 5647 5645 5643 5641 5639 5637 5636 5634 5632 5630 5629 5629 5627 5625 5622 5621 5619 5618 5616 5615
5596 5598 5599 5601 5604 5608 5610 5610 5610 5614 5626 5635 5634 5631 5629 5627 5628 5633 5638 5644 5647 5647 5648 5648 5645 5647 5651 5651 5651 5652 5653 5654 5655 5656 5656 5657 5658 5658 5659 5658 5658 5657 5656 5656 5655 5655 5655 5655 5654 5654 5654 5653 5653 5652 5652 5651 5650 5649 5649 5648 5647 5646 5646 5645 5643 5641 5639 5637 5635 5633 5630 5628 5626 5624 5622 5620 5618 5617 5617 5614 5611 5609 5608 5606 5605 5604
5590 5591 5590 5594 5599 5601 5603 5603 5602 5610 5623 5629 5625 5622 5621 5621 5625 5631 5633 5633 5635 5638 5639 5638 5638 5639 5641 5643 5645 5645 5645 5647 5648 5647 5649 5649 5650 5650 5650 5650 5650 5649 5648 5648 5646 5646 5646 5646 5645 5645 5644 5644 5643 5643 5643 5642 5641 5640 5639 5638 5637 5636 5636 5635 5633 5631 5630 5628 5625 5623 5621 5619 5617 5614 5612 5610 5608 5606 5606 5604 5601 5599 5596 5593 5592 5591
5582 5584 5585 5589 5594 5594 5594 5596 5601 5610 5618 5619 5616 5615 5616 5617 5621 5622 5622 5623 5626 5628 5630 5631 5632 5632 5632 5635 5637 5637 5638 5640 5640 5640 5641 5641 5641 5642 5642 5642 5642 5640 5640 5639 5638 5637 5637 5636 5635 5636 5635 5635 5634 5633 5633 5632 5631 5630 5629 5628 5627 5626 5624 5623 5622 5621 5619 5617 5615 5613 5611 5609 5606 5604 5601 5599 5597 5595 5594 5592 5589 5587 5585 5581 5578 5575
5576 5579 5581 5584 5587 5587 5588 5593 5599 5604 5607 5608 5608 5608 5608 5610 5612 5613 5614 5616 5617 5618 5621 5623 5623 5624 5625 5626 5627 5628 5629 5630 5631 5633 5633 5633 5634 5634 5633 5634 5633 5632 5632 5631 5629 5628 5627 5626 5625 5625 5625 5625 5625 5623 5623 5622 5621 5620 5619 5617 5616 5614 5613 5612 5610 5609 5607 5604 5602 5600 5598 5596 5594 5591 5588 5586 5583 5582 5580 5578 5576 5574 5572 5568 5565 5561
5570 5573 5575 5577 5579 5580 5583 5588 5593 5596 5598 5600 5601 5601 5601 5604 5606 5606 5607 5608 5609 5610 5612 5614 5615 5616 5617 5617 5618 5619 5619 5620 5621 5622 5623 5624 5625 5624 5625 5625 5624 5623 5623 5622 5620 5619 5618 5617 5615 5614 5614 5614 5613 5613 5612 5611 5610 5609 5608 5606 5605 5603 5601 5600 5599 5597 5595 5592 5590 5587 5585 5583 5582 5579 5576 5573 5570 5568 5566 5564 5562 5561 5560 5557 5553 5549
5562 5565 5567 5568 5570 5573 5577 5582 5587 5589 5591 5593 5594 5595 5596 5597 5598 5599 5599 5600 5602 5604 5605 5606 5607 5608 5608 5609 5610 5611 5611 5611 5612 5612 5613 5614 5615 5615 5616 5616 5615 5615 5614 5613 5612 5610 5609 5608 5606 5605 5604 5603 5602 5602 5601 5600 5599 5598 5597 5596 5594 5592 5591 5589 5587 5586 5583 5581 5578 5576 5573 5571 5570 5568 5566 5563 5559 5557 5555 5552 5549 5547 5547 5545 5541 5536
5555 5558 5560 5561 5563 5567 5571 5577 5580 5581 5582 5585 5587 5588 5588 5588 5589 5591 5592 5593 5595 5597 5598 5599 5600 5600 5601 5602 5602 5602 5603 5603 5603 5603 5604 5604 5605 5605 5606 5606 5606 5606 5605 5604 5603 5601 5600 5598 5597 5595 5594 5593 5592 5591 5590 5589 5588 5586 5585 5585 5583 5581 5580 5577 5575 5573 5571 5568 5566 5564 5561 5559 5557 5555 5554 5551 5548 5545 5543 5540 5537 5535 5534 5533 5528 5523
5548 5550 5554 5556 5557 5559 5565 5571 5574 5574 5574 5577 5579 5580 5580 5580 5581 5582 5584 5585 5587 5588 5590 5591 5592 5592 5593 5593 5593 5594 5594 5593 5594 5594 5594 5594 5594 5594 5594 5595 5595 5595 5594 5594 5593 5591 5590 5589 5587 5585 5584 5583 5581 5580 5578 5577 5575 5574 5573 5572 5570 5569 5567 5565 5563 5561 5558 5556 5554 5551 5549 5547 5545 5542 5541 5539 5537 5535 5532 5529 5525 5522 5522 5523 5517 5509
5542 5545 5549 5550 5549 5554 5561 5566 5566 5565 5566 5569 5570 5570 5569 5570 5572 5574 5575 5577 5578 5579 5581 5582 5583 5584 5585 5585 5585 5585 5585 5585 5585 5585 5585 5585 5585 5584 5584 5584 5583 5583 5582 5582 5581 5580 5579 5578 5577 5575 5574 5573 5571 5570 5568 5566 5565 5563 5562 5561 5559 5557 5556 5553 5552 5550 5547 5544 5542 5539 5537 5535 5533 5530 5528 5526 5524 5522 5521 5519 5516 5510 5507 5508 5508 5502
5536 5539 5542 5542 5544 5549 5555 5556 5555 5556 5558 5560 5560 5560 5561 5563 5565 5566 5567 5568 5569 5570 5572 5573 5574 5575 5576 5577 5577 5577 5577 5577 5577 5577 5577 5576 5575 5575 5575 5574 5574 5573 5573 5572 5571 5571 5569 5568 5568 5567 5565 5564 5563 5561 5559 5558 5556 5555 5553 5551 5550 5548 5546 5543 5542 5539 5536 5533 5530 5528 5525 5523 5521 5518 5516 5513 5510 5507 5506 5506 5507 5504 5498 5492 5490 5490